W8RD Weather Reports


Display with metric or nautical units.
time (UTC)temp
F
wind
direction
speed
MPH
gust
MPH
rain 1hr
in
rain 24hr
in
rain mn
in
humidity
%
barometer
mb
20260504110409 64 343 0.0 0.0 0.00 0.00 0.00 79 1017.2
20260504100355 65 356 0.0 0.0 0.00 0.00 0.00 79 1017.0
20260504081337 67 338 0.0 0.0 0.00 0.00 0.00 79 1017.1
20260504080336 67 330 0.0 0.0 0.00 0.00 0.00 78 1017.1
20260504070332 68 326 0.0 0.0 0.00 0.00 0.00 78 1017.5
20260504050311 70 342 0.0 0.0 0.00 0.00 0.00 73 1018.1
20260504045308 70 328 0.0 0.0 0.00 0.00 0.00 72 1018.1
20260504044303 71 330 0.0 0.0 0.00 0.00 0.00 71 1018.3
20260504043303 71 324 0.0 0.0 0.00 0.00 0.00 71 1018.0
20260504042304 71 323 0.0 0.0 0.00 0.00 0.00 71 1018.5
20260504041300 71 346 0.0 0.0 0.00 0.00 0.00 71 1018.5
20260504040300 71 326 0.0 0.0 0.00 0.00 0.00 70 1018.4
20260504035259 72 327 0.0 0.0 0.00 0.00 0.00 69 1018.7
20260504034254 72 334 0.0 0.0 0.00 0.00 0.00 68 1018.8
20260504033255 72 332 0.0 0.0 0.00 0.00 0.00 68 1018.7
20260504032254 72 2 0.0 0.0 0.00 0.00 0.00 67 1018.6
20260504031254 72 6 0.0 0.0 0.00 0.00 0.00 66 1018.6
20260504030254 72 3 1.0 1.0 0.00 0.00 0.00 64 1018.4
20260504025253 72 336 0.0 0.0 0.00 0.00 0.00 63 1018.3
20260504024252 72 16 1.0 1.0 0.00 0.00 0.00 64 1018.5
20260504023251 72 11 0.0 1.0 0.00 0.00 0.00 64 1017.8
20260504022249 73 335 0.0 0.0 0.00 0.00 0.00 65 1018.3
20260504021244 73 348 0.0 0.0 0.00 0.00 0.00 64 1018.0
20260504020243 72 329 0.0 0.0 0.00 0.00 0.00 65 1017.8
20260504015242 72 336 0.0 1.0 0.00 0.00 0.00 66 1017.6
20260504014240 72 327 0.0 0.0 0.00 0.00 0.00 66 1017.7
20260504013235 72 349 0.0 0.0 0.00 0.00 0.00 66 1017.5
20260504012235 72 328 0.0 0.0 0.00 0.00 0.00 66 1017.3
20260504011235 73 323 0.0 0.0 0.00 0.00 0.00 66 1017.3
20260504010232 73 328 0.0 0.0 0.00 0.00 0.00 65 1017.1
20260504005232 73 337 0.0 0.0 0.00 0.00 0.00 65 1017.0
20260504004232 73 333 0.0 0.0 0.00 0.00 0.00 64 1016.8
20260504003232 74 338 0.0 0.0 0.00 0.00 0.00 63 1016.9
20260504002231 74 327 0.0 0.0 0.00 0.00 0.00 63 1016.7
20260504001231 74 313 1.0 1.0 0.00 0.00 0.00 62 1016.4
20260504000231 74 325 0.0 0.0 0.00 0.00 0.00 62 1016.3
20260503235226 74 335 0.0 1.0 0.00 0.00 0.00 63 1016.3
20260503234222 75 340 1.0 1.0 0.00 0.00 0.00 63 1016.6
20260503233219 75 320 0.0 0.0 0.00 0.00 0.00 62 1016.6
20260503232220 76 315 0.0 0.0 0.00 0.00 0.00 61 1016.6
20260503231214 76 4 2.0 3.0 0.00 0.00 0.00 61 1016.5
20260503230214 76 290 0.0 1.0 0.00 0.00 0.00 62 1016.5
20260503225211 76 329 0.0 1.0 0.00 0.00 0.00 61 1016.5
20260503224207 77 44 0.0 1.0 0.00 0.00 0.00 62 1016.5
20260503223201 77 326 0.0 0.0 0.00 0.00 0.00 61 1016.5
20260503222155 77 44 0.0 1.0 0.00 0.00 0.00 60 1016.5
20260503221151 77 281 1.0 1.0 0.00 0.00 0.00 61 1016.3
20260503220149 78 321 1.0 2.0 0.00 0.00 0.00 58 1016.5
20260503215149 77 287 1.0 1.0 0.00 0.00 0.00 59 1016.6
20260503214149 78 340 1.0 1.0 0.00 0.00 0.00 59 1016.5
20260503213145 79 329 0.0 1.0 0.00 0.00 0.00 58 1016.6
20260503212140 80 320 0.0 1.0 0.00 0.00 0.00 56 1016.6
20260503211138 80 325 0.0 1.0 0.00 0.00 0.00 56 1016.6
20260503210138 82 324 1.0 1.0 0.00 0.00 0.00 53 1016.6
20260503205135 81 313 0.0 1.0 0.00 0.00 0.00 54 1016.7
20260503204135 82 121 1.0 2.0 0.00 0.00 0.00 54 1016.7
20260503203135 82 62 1.0 1.0 0.00 0.00 0.00 51 1016.8
20260503202130 82 174 4.0 4.0 0.00 0.00 0.00 51 1016.9
20260503201125 83 304 0.0 1.0 0.00 0.00 0.00 50 1017.0
20260503200124 83 278 1.0 1.0 0.00 0.00 0.00 51 1017.1
20260503195123 83 305 0.0 1.0 0.00 0.00 0.00 53 1017.3
20260503194121 81 301 0.0 0.0 0.00 0.00 0.00 53 1017.3
20260503193120 80 250 1.0 2.0 0.00 0.00 0.00 56 1017.6
20260503192118 82 349 0.0 1.0 0.00 0.00 0.00 50 1017.6
20260503191117 81 322 0.0 0.0 0.00 0.00 0.00 50 1018.0
20260503190117 79 322 0.0 0.0 0.00 0.00 0.00 50 1018.1
20260503185114 79 316 1.0 1.0 0.00 0.00 0.00 50 1018.4
20260503184112 80 321 0.0 0.0 0.00 0.00 0.00 51 1018.5
20260503183112 79 329 0.0 1.0 0.00 0.00 0.00 52 1018.5
20260503182108 78 340 0.0 0.0 0.00 0.00 0.00 55 1018.6
20260503181107 79 335 1.0 2.0 0.00 0.00 0.00 53 1018.6
20260503175056 78 66 0.0 0.0 0.00 0.00 0.00 53 1018.7
20260503174055 78 329 0.0 1.0 0.00 0.00 0.00 55 1018.8
20260503173053 78 49 1.0 1.0 0.00 0.00 0.00 54 1018.7
20260503172053 78 316 0.0 1.0 0.00 0.00 0.00 55 1019.0
20260503171053 78 343 0.0 1.0 0.00 0.00 0.00 55 1019.1
20260503131019 66 337 0.0 0.0 0.00 0.00 0.00 80 1018.8